{"data":{"norad_id":46384,"epoch":"2026-05-25T06:00:02.000160Z","epoch_age_seconds":49877,"freshness":"FRESH","line1":"1 46384U 20062BM  26145.25002315 -.00021650  00000+0 -24599-3 0  9998","line2":"2 46384  53.0381 337.3941 0000854  77.4914  70.3915 15.61175112  5882","mean_motion":15.61175112,"eccentricity":8.54e-5,"inclination_deg":53.0381,"raan_deg":337.3941,"arg_perigee_deg":77.4914,"mean_anomaly_deg":70.3915,"bstar":-0.00024599,"rev_number":588,"period_min":92.238211391625,"perigee_km":383.68402562968,"apogee_km":384.83904329937,"semimajor_km":6762.3985344645,"source":"CELESTRAK","updated_at":"2026-05-25T13:38:16.474501Z"}}